User: anonymous   Login
Location: Unspecified
(0.0000°N, 0.0000°E)
Time: 20:23:47
(UTC+01:00)
Language:

Resurs 01 Rocket - Orbit

View from above orbital plane
View from above orbital plane
View from above satellite
View from above satellite

Ground track
Ground track

The orbit data is extracted from the following two-line orbital elements,

1 23343U 94074B   14354.55510807  .00000954  00000-0  14516-3 0  2000
2 23343 098.2242 001.8018 0008396 106.2656 007.3253 14.76337119 82590
Epoch (UTC): 20 December 2014 13:19:21
Eccentricity: 0.0008396
inclination: 98.2242°
perigee height: 635 km
apogee height: 647 km
right ascension of ascending node: 1.8018°
argument of perigee: 106.2656°
revolutions per day: 14.76337119
mean anomaly at epoch: 7.3253°
orbit number at epoch: 8259

The dashed part of the orbit path shows where the satellite is in the earth's shadow,  

DLR